sat.trackr.live / text

‹ back to catalog

STARLINK-11716 [DTC]

NORAD 64133 · 2025-111L

PAYLOAD ACTIVE UNKNOWN

§ Identity

Operator
Country
US
Launch date
2025-05-24
Launch site
AFETR
Launch vehicle
Mass (kg)
RCS (m²)

Purposes: comms

External: N2YO · Heavens-Above · Gunter

§ Orbital elements

Epoch: 2026-05-24T23:20:02.373216Z

Period
91.66 min
Inclination
42.9995°
Eccentricity
0.0001739
Mean motion
15.70939498 rev/d
Perigee alt
355.0 km
Apogee alt
357.4 km
Semi-major
6,734.3 km
B*
2.0350e-3
RAAN
234.2836°
Arg perigee
276.3577°
Mean anomaly
83.7092°
Rev number
5,868

§ Raw data

STARLINK-11716 [DTC]1 64133U 25111L   26144.97224969  .00270474  00000+0  20350-2 0  99972 64133  42.9995 234.2836 0001739 276.3577  83.7092 15.70939498 58683

JSON: /api/v1/satellites/64133 · /tle

For live sub-satellite position, see the globe view (requires WebGL).

§ Visibility from observer

Set your observer location to see the next 7 days of passes ≥ 10°. The values pass through the URL so the page stays shareable.

No JS? Fill the form by hand. The geolocation button needs JavaScript.